EHI
0 0 0 0 0 0 0 0 1 2 2 3 4 5 4 3 4 4 3 2 1 0 0 1 1 1 0 0 0 1 2 2 2 1 1 1 0 0 0 0 0 0 0
0 0 0 0 0 0 0 0 0 1 2 2 2 2 2 1 1 1 1 1 0 0 0 0 0 0 0 0 0 0 1 2 2 2 2 1 0 0 0 0 0 0 0
0 0 0 0 0 0 0 0 0 0 2 2 1 0 0 0 0 0 0 0 0 0 0 0 0 0 0 0 0 0 0 1 2 2 2 1 0 0 0 0 1 1 0
0 0 0 0 0 0 1 1 0 0 1 2 1 0 0 0 0 0 0 0 0 0 0 0 0 0 0 0 0 0 0 0 1 1 1 0 0 0 0 0 1 1 1
0 0 0 0 0 1 2 2 1 0 0 1 1 0 0 0 0 0 0 0 0 0 0 1 1 0 0 0 0 0 0 1 1 0 0 0 0 0 1 1 1 1 0
0 0 0 0 0 1 2 2 1 0 0 0 0 0 0 1 1 1 1 0 0 0 1 2 2 1 0 0 0 0 0 1 1 0 0 0 0 0 1 1 0 0 0
0 0 0 0 0 0 1 1 1 0 0 0 0 0 1 2 2 2 2 1 0 1 1 2 2 1 1 2 1 0 0 1 1 0 0 0 0 0 1 1 0 0 0
0 0 0 0 0 0 0 0 0 0 0 0 0 0 1 2 2 2 2 1 1 1 1 1 1 2 3 4 3 1 0 0 0 0 0 0 0 0 0 0 0 0 0
0 0 0 0 0 0 0 0 0 0 0 0 0 0 0 1 1 1 1 1 0 1 1 1 2 4 5 5 4 1 0 1 0 0 0 0 0 0 0 0 0 0 0
0 0 0 0 0 0 0 0 0 0 0 0 0 0 0 0 0 0 0 0 0 0 1 2 3 4 4 4 4 1 0 0 0 0 0 0 0 0 0 0 0 0 0
0 0 0 0 0 0 0 0 0 0 0 0 0 0 0 0 0 0 0 0 0 1 1 3 3 3 3 3 2 1 0 0 0 0 0 0 0 0 0 0 0 0 0
0 0 0 0 0 0 0 0 0 0 0 0 0 0 0 0 0 0 0 0 0 1 2 2 2 2 1 1 1 0 0 0 0 0 0 0 0 0 0 0 0 0 0
0 0 0 0 0 0 0 0 0 0 0 0 0 0 0 0 0 0 0 0 0 1 1 1 1 1 0 0 0 0 0 0 0 0 0 0 0 0 0 0 0 0 0
0 0 0 0 0 0 0 0 0 0 0 0 0 0 0 0 0 0 0 0 0 0 0 0 0 0 0 0 0 0 0 0 0 0 0 0 0 0 1 1 0 0 0
0 0 0 0 0 0 0 0 0 0 0 0 0 0 0 0 0 0 0 0 0 0 0 0 0 0 0 0 0 0 0 0 0 0 0 0 0 1 1 2 1 1 0
0 0 0 0 0 0 0 0 0 0 0 0 0 0 0 0 0 0 0 0 0 0 0 0 0 0 0 0 0 0 0 0 0 0 0 0 1 1 1 2 2 2 1
0 0 0 0 0 0 0 0 0 0 0 0 0 0 0 0 0 0 0 0 0 0 0 0 0 0 0 0 0 0 0 0 0 0 0 0 0 0 0 1 1 2 2
0 0 0 0 0 0 0 0 0 0 0 0 0 0 0 0 0 0 0 0 0 0 0 0 0 0 0 0 0 0 0 0 0 0 0 0 0 0 0 0 0 1 2
0 0 0 0 0 0 0 0 0 0 0 0 0 0 0 0 0 0 0 0 0 0 0 0 0 0 0 0 0 0 0 0 0 0 0 0 0 0 0 0 0 1 2
0 0 0 0 0 0 0 0 0 0 0 0 0 0 0 0 0 0 0 0 0 0 0 0 0 0 0 0 0 0 0 0 0 0 0 0 0 0 0 0 0 0 1
0 0 0 0 0 0 0 0 0 0 0 0 0 0 0 0 0 0 0 0 0 0 0 0 0 0 0 0 0 0 0 0 0 0 0 0 0 0 0 0 0 0 0
0 0 0 0 0 0 0 0 0 0 0 0 0 0 0 0 0 0 0 0 0 0 0 0 0 0 0 0 0 0 0 0 0 0 0 0 0 0 0 0 0 0 0
0 0 0 0 0 0 0 0 0 0 0 0 0 0 0 0 0 0 0 0 0 0 0 0 0 0 0 0 0 0 0 0 0 0 0 0 0 0 0 0 0 0 0
0 0 0 0 0 0 0 0 0 0 0 0 0 0 0 0 0 0 0 0 0 0 0 0 0 0 0 0 0 0 0 0 0 0 0 0 0 0 0 0 0 0 0
0 0 0 0 0 0 0 0 0 0 0 0 0 0 0 0 0 0 0 0 0 0 0 0 0 0 0 0 0 0 0 0 0 0 0 0 0 0 0 0 0 0 0
0 0 0 0 0 0 0 0 0 0 0 0 0 0 0 0 0 0 0 0 0 0 0 0 0 0 0 0 0 0 0 0 0 0 0 0 0 0 0 0 0 0 0
Wind_Speed
0 0 4 6 7 8 9 9 9 9 9 9 9 9 9 9 9 8 8 7 8 8 8 8 8 8 8 7 7 8 8 7 7 7 6 6 6 6 5 5 4 3 5
2 1 5 6 7 8 8 8 8 9 9 9 8 8 8 8 8 8 8 8 8 7 7 7 7 7 8 7 7 8 8 7 7 7 7 6 6 5 5 5 5 3 5
3 2 4 7 8 8 8 8 8 8 8 8 8 7 7 8 7 7 7 7 7 8 8 7 7 7 7 7 7 7 7 8 7 8 7 4 4 6 5 5 6 5 6
4 2 3 7 7 7 7 7 7 7 7 7 6 6 6 7 6 6 6 7 7 7 7 7 6 7 7 7 6 7 7 7 8 7 4 3 3 6 6 6 6 6 6
3 2 3 7 7 6 6 7 7 7 6 6 6 6 6 6 6 6 6 6 6 6 6 6 6 6 7 6 7 7 7 7 8 6 3 3 3 5 6 6 6 6 6
3 2 2 6 6 6 6 6 6 6 6 6 6 6 6 6 5 5 5 5 6 6 6 6 6 6 7 7 7 8 8 8 6 4 3 3 2 5 6 6 6 6 6
3 1 2 5 5 5 5 6 6 6 6 6 6 5 5 5 5 4 5 5 5 5 5 6 6 6 6 7 7 7 7 7 4 3 3 2 2 5 6 6 6 6 6
3 2 2 3 4 4 4 5 5 5 5 6 6 5 5 5 5 5 5 5 5 5 5 6 6 6 7 7 7 7 7 6 5 4 2 2 4 5 5 5 5 5 5
2 2 2 2 3 3 3 4 4 5 5 5 5 5 5 5 5 5 5 5 5 5 6 6 6 8 8 7 7 7 8 7 4 2 3 2 4 6 6 5 5 5 5
2 2 2 2 3 3 3 4 4 5 6 6 6 6 6 6 6 6 5 5 5 6 6 7 7 7 8 8 8 8 8 6 3 3 2 2 5 6 6 6 6 6 5
1 1 1 2 2 2 2 3 5 6 6 6 6 7 6 4 4 4 5 5 5 6 7 8 8 8 8 8 9 10 7 3 3 3 2 4 5 5 6 6 6 6 6
1 1 0 1 1 2 2 3 3 3 4 4 3 4 3 3 3 4 7 8 8 8 8 9 9 8 7 4 6 7 3 4 3 3 3 5 6 6 6 7 7 7 7
2 1 1 1 1 1 1 2 2 2 2 3 4 3 3 3 3 4 3 4 5 7 5 6 6 4 4 3 3 4 4 4 3 3 4 7 7 7 8 8 8 7 7
2 1 1 2 1 1 2 2 2 2 2 2 3 3 2 2 3 3 3 3 3 3 3 4 3 4 4 4 4 5 5 4 3 3 4 8 8 8 8 8 8 8 8
3 2 1 2 2 1 2 1 2 2 2 2 2 2 2 2 2 2 2 3 3 3 3 3 4 4 5 5 5 5 5 5 5 4 3 8 9 9 9 9 9 9 9
3 2 2 3 2 2 2 1 1 1 1 2 2 2 2 2 2 2 3 3 3 3 3 4 4 4 4 4 6 6 6 5 5 5 5 6 11 11 11 11 12 12 11
3 3 3 3 3 3 2 1 2 1 2 2 2 2 2 2 3 3 3 3 2 3 4 4 5 4 5 5 6 6 6 6 6 6 6 5 6 11 13 13 13 12 12
4 3 2 3 4 3 3 2 2 2 2 2 2 2 3 3 3 3 3 3 2 3 3 4 4 4 5 5 5 5 5 5 7 6 6 6 6 6 9 14 14 14 13
4 4 3 3 4 4 4 3 3 3 3 2 2 2 3 3 4 4 3 2 3 3 3 4 3 3 4 5 5 5 5 5 5 6 7 7 6 6 6 9 13 14 14
4 4 4 4 4 4 3 3 3 4 3 3 3 3 3 3 4 4 3 3 3 4 3 4 4 4 3 4 6 6 5 5 5 6 6 5 6 7 7 7 7 8 14
4 4 4 4 3 3 2 2 2 2 2 2 3 4 3 3 3 4 3 3 3 3 3 4 4 5 3 2 4 4 4 5 6 5 5 5 6 6 6 7 6 5 6
5 5 4 4 4 3 2 2 2 2 1 1 2 3 4 3 3 3 4 3 3 4 4 3 3 3 2 2 2 3 2 4 4 5 4 5 5 5 6 7 6 6 5
5 5 5 4 4 3 3 3 3 3 3 3 3 3 3 3 3 4 4 3 3 3 3 2 2 3 2 2 2 3 3 1 1 3 4 4 4 4 4 4 6 6 6
6 5 5 5 4 3 4 4 4 3 2 0 0 1 3 3 3 3 3 3 3 2 3 2 2 2 3 1 2 2 2 3 2 1 2 3 4 5 5 5 5 5 6
6 5 5 5 4 3 3 4 4 3 2 1 1 2 3 3 3 3 3 3 3 2 2 2 2 2 2 2 2 1 2 2 2 2 0 2 3 3 3 4 4 4 5
5 5 5 5 4 3 4 4 4 4 4 3 2 2 2 2 2 3 3 2 2 2 2 1 1 2 1 2 2 2 2 2 2 2 2 0 1 2 3 3 3 4 4
Wind_Direction
298 270 111 100 98 94 88 85 82 83 84 84 83 82 83 82 82 79 77 75 75 76 76 79 83 84 85 86 85 84 87 87 85 81 79 75 74 78 81 81 84 82 86
151 133 119 108 102 96 92 86 83 81 81 81 81 82 82 80 78 78 76 73 74 74 75 76 79 79 79 84 85 83 84 84 80 73 66 59 59 66 74 82 85 87 89
121 103 110 107 102 97 91 86 84 83 82 82 82 80 79 80 80 77 78 74 73 70 70 71 76 78 77 80 82 79 78 77 75 71 57 34 38 63 76 84 89 89 88
123 110 112 109 103 96 90 86 85 85 84 83 83 81 80 80 80 76 75 74 73 71 69 69 71 74 74 75 76 76 76 73 70 65 47 29 33 66 75 81 85 86 85
113 102 116 111 104 96 88 82 83 85 86 85 83 82 79 77 75 73 74 76 73 73 70 67 68 72 69 69 71 75 77 72 66 56 41 32 31 64 73 75 76 81 81
116 106 123 114 105 96 89 84 81 80 79 80 79 77 73 73 73 71 75 77 73 72 68 65 66 68 67 66 70 75 75 71 62 47 37 30 32 68 75 75 75 73 72
130 111 108 113 103 96 90 85 80 75 73 73 74 71 67 65 64 65 68 74 72 70 69 66 64 65 68 71 73 77 76 74 66 49 32 23 43 68 73 73 69 66 67
129 99 73 101 101 93 89 83 78 74 69 67 66 63 59 57 60 60 59 65 69 70 72 69 65 66 72 77 73 73 71 68 62 52 37 29 53 69 75 72 70 64 62
97 78 44 32 47 60 61 62 66 66 63 58 52 48 48 48 54 54 55 65 71 72 73 73 68 72 72 70 69 69 69 65 54 37 42 29 53 65 73 73 66 61 59
75 56 47 27 33 34 20 27 45 48 48 44 38 35 38 41 40 41 42 54 70 75 74 72 73 73 71 67 65 65 61 57 44 34 21 33 54 65 67 67 62 54 50
98 37 45 23 24 25 9 22 32 37 34 33 30 32 36 30 23 21 27 49 64 73 74 71 69 69 65 57 62 62 54 39 37 30 16 39 55 60 63 63 58 53 49
180 203 92 34 30 28 25 33 25 31 27 29 30 29 33 32 23 35 32 49 58 62 64 66 65 60 59 47 49 54 45 40 36 26 26 38 49 57 63 62 56 52 49
180 187 146 123 66 58 39 29 30 22 20 22 28 35 44 42 29 34 34 37 44 51 48 51 55 52 56 55 48 45 43 44 32 20 24 38 46 57 62 60 55 49 48
150 166 155 140 107 69 62 40 36 31 25 24 23 36 52 52 42 39 43 42 47 50 54 51 57 55 56 54 55 51 47 44 35 24 29 41 44 53 56 56 54 50 49
151 159 146 126 118 90 68 39 46 34 36 30 32 36 63 72 63 53 49 50 51 57 64 63 61 59 55 50 51 54 51 46 40 32 25 42 46 47 49 50 52 52 51
158 157 132 122 125 105 93 76 50 43 44 43 34 39 68 85 85 76 67 59 57 61 68 73 70 67 58 56 51 50 51 46 42 38 33 34 42 45 46 49 50 53 53
161 152 146 141 119 111 103 82 68 51 56 50 33 41 65 83 92 90 79 67 60 68 74 73 67 64 63 60 53 47 48 45 44 42 38 35 34 42 46 49 49 49 50
147 140 146 132 117 110 99 81 67 55 55 46 40 48 61 75 91 92 87 76 71 70 74 77 69 69 62 60 55 45 43 42 42 45 43 38 35 35 37 44 46 45 45
153 144 131 116 119 113 96 79 69 58 50 40 44 49 57 68 83 94 92 84 82 78 71 85 69 77 80 74 68 53 43 40 37 43 42 39 37 34 31 35 40 40 40
141 132 123 113 111 108 93 76 59 50 39 37 40 42 57 67 79 92 91 84 86 85 73 79 82 71 78 83 78 61 47 41 39 37 35 35 36 38 36 33 28 28 34
134 134 136 130 129 123 105 94 80 54 21 24 30 39 51 70 81 89 94 86 86 90 95 96 94 83 69 70 80 58 37 40 44 35 28 34 35 34 37 35 29 24 19
162 160 150 146 149 148 130 119 113 107 69 39 20 34 37 59 75 93 98 98 96 97 91 89 96 98 67 43 90 87 41 14 20 27 27 36 31 28 34 34 29 26 19
176 175 165 160 154 145 126 101 80 60 42 31 22 22 16 40 64 81 95 101 103 108 117 110 107 111 110 46 62 118 122 150 353 359 18 28 26 30 24 23 27 21 18
190 176 160 155 148 143 137 132 129 126 123 143 18 31 28 38 58 76 90 97 103 104 116 126 113 110 120 108 58 57 97 141 134 40 351 7 23 30 21 20 16 14 14
181 168 156 146 145 144 143 145 131 120 124 99 65 62 45 33 42 66 85 94 99 105 119 112 105 103 114 133 133 112 84 69 89 126 148 335 1 6 11 9 8 8 8
169 160 150 149 154 150 147 146 146 144 135 118 96 82 53 33 32 48 73 83 96 101 113 119 112 109 105 111 117 127 138 139 149 130 142 189 333 327 347 359 6 360 1